星链-37932(STARLINK-37932)

导读

STARLINK-37932(NORAD编号69564)是美国太空探索技术公司(SpaceX)星链星座的V2 mini量产通信卫星,于2026年4月30日随Starlink 17-36任务,由13手猎鹰9号助推器B1093从加州范登堡基地发射入轨。 该卫星单星重约227kg,采用平板堆叠设计,搭载Ku/Ka波段通信载荷、氪工质霍尔推进器,具备光学星间链路和自主避撞能力,设计寿命5-7年。原运行于约550公里近地轨道,2026年SpaceX启动降轨计划后,已被调整至480公里轨道运行,以降低失控后空间碎片风险,当前在轨状态正常,主要为全球用户提供低时延宽带互联网接入服务。

基本信息
目录编号:
69564
目录名称:
STARLINK-37932
国际标识:
2026-135U
轨道中心:
EARTH
卫星名称:
星链-37932
卫星全名:
星链-37932(STARLINK-37932)
卫星状态:
在轨 (已飞行81 天)
发射日期:
2026-06-15 UTC
国别 :
美国 (US)
星等 :
--
轨道信息
数据来源 国际轨道数据
星历时间: 2026-09-04T00:00:34+0800
16小时前
查看轨道信息
半长轴: 6843.699km
偏心率: 0.0001698
轨道倾角: 97.284°
近地点辐角 88.353°
升交点赤经 274.642°
平近点角 271.791°
近地点: 464.399km
远地点: 466.725km
周期: 93.907分钟
每日圈数: 15.334387
详细信息
固有亮度:
5
最大亮度:
2.5
卫星平台:
Starlink V1.0
覆盖范围:
全球
运营商:
太空探索技术公司
运营商所在国:
美国
制造商(研发单位):
太空探索技术公司
制造商所在国:
美国
使用方式:
暂无
卫星简介
Starlink 计划是 SpaceX 推出的全球卫星互联网项目,通过发射低轨道卫星,为全球尤其是偏远地区提供高速、低延迟的互联网服务。自 2019 年起,Starlink 已部署数千颗卫星,旨在缩小全球数字鸿沟,推动互联网普及。该项目还为军事、航空等行业提供通信支持,带来广泛经济效益。
2D轨道图
3D轨道图
轨道高度分析图
轨道倾角分析图
轨道综合分析图
查看轨道综合分析图
交会数据列表
事件ID 空间交会对象 最接近时刻(TCA) 交会距离 交会风险概率(CRP) 交会风险指数(CRI) 操作
CDM_260903-163404-859506-956421
2026-09-03T
16:34:16+0000
2.975 km
极远距离
1.278794E-6 低风险 0.37
CDM_260905-100404-607306-956421
2026-09-05T
10:04:28+0000
2.917 km
极远距离
1.096931E-6 低风险 0.36
CDM_260904-162706-493006-956421
2026-09-04T
16:27:07+0000
2.910 km
极远距离
9.515648E-7 极低风险 0.35